Regional Weather Roundup
Issued by NWS

Home | Current Version | Previous Version | Graphics & Text | Print | Product List | Glossary On
Versions: 1 2 3 4 5 6 7 8 9 10 11 12 13 14 15 16 17 18 19 20 21 22 23 24 25 26 27 28 29 30 31 32 33 34 35 36 37 38 39 40 41 42 43 44 45 46 47 48 49 50
000
ASUS45 KCYS 200210
RWRWY

WYOMING REGIONAL WEATHER ROUNDUP
NATIONAL WEATHER SERVICE CHEYENNE WY
700 PM MST SUN NOV 19 2017

NOTE:  "FAIR" INDICATES FEW OR NO CLOUDS BELOW 12,000 FEET
WITH NO SIGNIFICANT WEATHER AND/OR OBSTRUCTIONS TO VISIBILITY.

WYZ001-200300-
YELLOWSTONE NATIONAL PARK

CITY           SKY/WX    TMP DP  RH WIND       PRES   REMARKS
LK YELLOWSTONE   N/A     14  12  92 NW3       30.04F
W YELLOWSTONE  NOT AVBL

$$
WYZ002>013-054>058-071-098>099-200300-
NORTHERN WYOMING

CITY           SKY/WX    TMP DP  RH WIND       PRES   REMARKS
JACKSON        FAIR      15  12  88 N5        30.07F WCI   8
CODY           FAIR      46   2  16 W21G28    29.83F
GREYBULL       FAIR      28  22  78 SE3       29.86S
WORLAND        FAIR      21  19  92 CALM      29.86S
SHERIDAN       FAIR      32  23  69 CALM      29.72F
BUFFALO        FAIR      39   9  29 W10       29.77F WCI  32
GILLETTE       FAIR      41  13  31 SW18      29.75F
HULETT         FAIR      43  18  36 S9        29.76F
NEWCASTLE      FAIR      32  18  55 E6        29.84S WCI  26

$$
WYZ014>020-022>026-101>103-200300-
CENTRAL WYOMING

CITY           SKY/WX    TMP DP  RH WIND       PRES   REMARKS
BIG PINEY      FAIR      14  10  84 CALM      30.10S
PINEDALE       FAIR      19  14  79 CALM      30.10S
DUBOIS         FAIR      32   3  29 N18G25    29.94F WCI  20
LANDER         FAIR      28  17  63 N7        29.90F WCI  21
RIVERTON       FAIR      25  18  74 SW6       29.92F WCI  18
CASPER         FAIR      37  15  40 SW25G31   29.89F WCI  25
DOUGLAS        FAIR      37  14  38 NW6       29.88F WCI  32

$$
WYZ021-027>030-104>119-200300-
SOUTHERN WYOMING

CITY           SKY/WX    TMP DP  RH WIND       PRES   REMARKS
EVANSTON       FAIR      29  19  66 S7        30.11F WCI  22
FORT BRIDGER   FAIR      23  13  66 SW10      30.14S WCI  12
ROCK SPRINGS   FAIR      24  14  65 SW13      30.10S WCI  12
DIXON          FAIR      20  14  76 CALM      30.16S
RAWLINS        FAIR      32  13  45 SW20      30.04F WCI  20
SARATOGA       FAIR      25  12  58 E6        30.09F WCI  18
LARAMIE        FAIR      31  11  43 NE8       30.02R WCI  23
CHEYENNE       FAIR      42   8  24 W18G25    29.93F
TORRINGTON     FAIR      48   6  18 W16G28    29.87F
PINE BLUFFS    FAIR      43   3  19 MISG      29.94S

$$



USA.gov is the U.S. government's official web portal to all federal, state and local government web resources and services.